Clayton Lake, ME

10:25 AM EDT on August 19, 2017 (GMT -0400)
Clayton Lake

Weather History for K40B - May, 2014

Change the Weather History Date:

Thursday, May 15, 2014

  Actual Average Record
Temperature  
Mean Temperature 62 °F -  
Max Temperature 79 °F 59 °F 79 °F (2014)
Min Temperature 47 °F 34 °F 24 °F (2013)
Degree Days  
Heating Degree Days 2    
Growing Degree Days 12 (Base 50)    
Moisture  
Dew Point 51 °F    
Average Humidity 66    
Maximum Humidity 91    
Minimum Humidity 43    
Precipitation  
Precipitation 0.00 in - - ()
Sea Level Pressure  
Sea Level Pressure 30.15 in    
Wind  
Wind Speed 6 mph (SSE)    
Max Wind Speed 21 mph    
Max Gust Speed 31 mph    
Averages and records for this station are not official NWS values.
T = Trace of Precipitation, MM = Missing Value Source: NWS Daily Summary

Daily Weather History Graph

Daily Weather History Graph

Search for Another Location

Airport or City:

Trip Planner

Search our weather history database for the weather conditions in past years. The results will help you decide how hot, cold, wet, or windy it might be!

Date:

Astronomy

May. 15, 2014 Rise Set
Actual Time 5:04 AM EDT 8:05 PM EDT
Civil Twilight 4:28 AM EDT 8:41 PM EDT
Nautical Twilight 3:42 AM EDT 9:27 PM EDT
Astronomical Twilight 2:47 AM EDT 10:23 PM EDT
Moon 9:09 PM EDT (5/15) 5:49 AM EDT (5/15)
Length of Visible Light 16h 12m
Length of Day
15h 01m
Full, 99% of the Moon is Illuminated
May 15
Full
May 21
Last Quarter
May 28
New
Jun 5
First Quarter
Jun 13
Full

Hourly Weather History & Observations

Time (EDT) Temp. Dew Point Humidity Pressure Visibility Wind Dir Wind Speed Gust Speed Precip Events Conditions
12:16 AM 51.8 °F 43.2 °F 72% 30.21 in - Variable 3.5 mph - N/A   Unknown
1:16 AM 51.4 °F 43.7 °F 75% 30.22 in - Calm Calm - N/A   Unknown
2:16 AM 50.7 °F 44.2 °F 78% 30.21 in - Variable 2.3 mph - N/A   Unknown
3:16 AM 48.4 °F 43.9 °F 84% 30.20 in - Calm Calm - N/A   Unknown
4:16 AM 48.4 °F 44.4 °F 86% 30.21 in - Calm Calm - N/A   Unknown
5:16 AM 47.1 °F 44.6 °F 91% 30.21 in - Calm Calm - N/A   Unknown
6:16 AM 48.7 °F 44.4 °F 85% 30.21 in - Variable 2.3 mph - N/A   Unknown
7:16 AM 54.0 °F 45.0 °F 72% 30.22 in - Variable 5.8 mph - 0.00 in   Unknown
8:16 AM 58.8 °F 47.5 °F 66% 30.21 in - South 6.9 mph - N/A   Unknown
9:16 AM 64.0 °F 49.6 °F 59% 30.19 in - Variable 3.5 mph - N/A   Unknown
10:16 AM 67.6 °F 50.4 °F 54% 30.18 in - Variable 4.6 mph - N/A   Unknown
11:16 AM 70.3 °F 50.7 °F 50% 30.16 in - South 10.4 mph 16.1 mph N/A   Unknown
12:16 PM 73.6 °F 54.0 °F 50% 30.14 in - South 10.4 mph 18.4 mph N/A   Unknown
1:16 PM 75.7 °F 54.7 °F 48% 30.12 in - SE 8.1 mph 17.3 mph N/A   Unknown
2:16 PM 77.0 °F 52.9 °F 43% 30.10 in - South 12.7 mph 17.3 mph N/A   Unknown
3:16 PM 78.1 °F 54.7 °F 44% 30.09 in - SSE 11.5 mph 21.9 mph N/A   Unknown
4:16 PM 77.2 °F 54.0 °F 44% 30.08 in - SSE 11.5 mph 21.9 mph N/A   Unknown
5:16 PM 75.0 °F 56.1 °F 52% 30.07 in - South 18.4 mph 27.6 mph N/A   Unknown
6:16 PM 73.0 °F 57.2 °F 57% 30.06 in - South 13.8 mph 28.8 mph N/A   Unknown
7:16 PM 68.9 °F 57.0 °F 66% 30.06 in - South 17.3 mph 26.5 mph N/A   Unknown
8:16 PM 66.0 °F 55.9 °F 70% 30.08 in - South 20.7 mph 31.1 mph N/A   Unknown
9:16 PM 63.7 °F 54.9 °F 73% 30.10 in - South 18.4 mph 28.8 mph N/A   Unknown
10:16 PM 62.6 °F 55.0 °F 76% 30.11 in - SSE 12.7 mph 29.9 mph N/A   Unknown
11:16 PM 61.5 °F 54.9 °F 79% 30.11 in - South 10.4 mph 19.6 mph N/A   Unknown